Fallon NAS, NV

9:06 AM PDT on May 24, 2017 (GMT -0700)
Fallon Naval Air Station

Weather History for KNFL - October, 2011

Change the Weather History Date:

Thursday, October 6, 2011

  Actual Average Record
Temperature  
Mean Temperature 46 °F -  
Max Temperature 55 °F 74 °F 88 °F (1964)
Min Temperature 37 °F 35 °F 23 °F (1941)
Degree Days  
Heating Degree Days 19    
Moisture  
Dew Point 28 °F    
Average Humidity 55    
Maximum Humidity 89    
Minimum Humidity 26    
Precipitation  
Precipitation 0.00 in - - ()
Sea Level Pressure  
Sea Level Pressure 29.82 in    
Wind  
Wind Speed 7 mph (NW)    
Max Wind Speed 15 mph    
Max Gust Speed 20 mph    
Visibility 10 miles    
Events Rain    
Averages and records for this station are not official NWS values.
T = Trace of Precipitation, MM = Missing Value Source: NWS Daily Summary

Daily Weather History Graph

Daily Weather History Graph

Search for Another Location

Airport or City:

Trip Planner

Search our weather history database for the weather conditions in past years. The results will help you decide how hot, cold, wet, or windy it might be!

Date:

Astronomy

Oct. 06, 2011 Rise Set
Actual Time 6:55 AM PDT 6:29 PM PDT
Civil Twilight 6:28 AM PDT 6:56 PM PDT
Nautical Twilight 5:57 AM PDT 7:27 PM PDT
Astronomical Twilight 5:26 AM PDT 7:58 PM PDT
Moon 3:44 PM PDT (10/6) 1:50 AM PDT (10/6)
Length of Visible Light 12h 27m
Length of Day
11h 34m
Waxing Gibbous, 76% of the Moon is Illuminated
Oct 6
Waxing Gibbous
Oct 11
Full
Oct 19
Last Quarter
Oct 26
New
Nov 2
First Quarter

Hourly Weather History & Observations

Time (PDT) Temp. Windchill Dew Point Humidity Pressure Visibility Wind Dir Wind Speed Gust Speed Precip Events Conditions
12:56 AM 44.1 °F 37.1 °F 32.0 °F 63% 29.70 in 10.0 mi WNW 15.0 mph - 0.00 in Rain Light Rain
1:56 AM 41.0 °F 35.8 °F 35.1 °F 79% 29.72 in 10.0 mi NNW 8.1 mph - 0.00 in Rain Light Rain
2:56 AM 39.0 °F - 34.0 °F 82% 29.72 in 10.0 mi Calm Calm - 0.00 in   Mostly Cloudy
3:56 AM 37.9 °F - 34.0 °F 86% 29.73 in 10.0 mi Calm Calm - N/A   Mostly Cloudy
4:56 AM 39.9 °F 37.8 °F 33.1 °F 77% 29.73 in 10.0 mi SSW 3.5 mph - N/A   Mostly Cloudy
5:56 AM 37.9 °F - 33.1 °F 83% 29.75 in 10.0 mi Calm Calm - N/A   Mostly Cloudy
6:22 AM 37.4 °F 32.8 °F 33.8 °F 87% 29.81 in 10.0 mi ENE 5.8 mph - N/A   Mostly Cloudy
6:56 AM 37.9 °F 32.7 °F 34.0 °F 86% 29.76 in 10.0 mi South 6.9 mph - N/A   Mostly Cloudy
7:56 AM 39.0 °F 36.8 °F 36.0 °F 89% 29.78 in 10.0 mi South 3.5 mph - N/A   Mostly Cloudy
8:56 AM 43.0 °F 40.3 °F 32.0 °F 65% 29.79 in 10.0 mi WSW 4.6 mph - N/A   Mostly Cloudy
9:56 AM 46.9 °F - 28.9 °F 50% 29.81 in 10.0 mi Variable 4.6 mph - N/A   Mostly Cloudy
10:56 AM 48.9 °F - 28.0 °F 44% 29.81 in 10.0 mi Variable 3.5 mph - N/A   Mostly Cloudy
11:56 AM 51.1 °F - 24.1 °F 35% 29.82 in 10.0 mi North 11.5 mph - N/A   Mostly Cloudy
12:56 PM 52.0 °F - 23.0 °F 32% 29.83 in 10.0 mi North 8.1 mph - N/A   Mostly Cloudy
1:56 PM 53.1 °F - 23.0 °F 31% 29.83 in 10.0 mi NNE 9.2 mph 19.6 mph N/A   Mostly Cloudy
2:56 PM 54.0 °F - 23.0 °F 30% 29.83 in 10.0 mi NNW 12.7 mph - N/A   Mostly Cloudy
3:56 PM 55.9 °F - 21.0 °F 26% 29.83 in 10.0 mi North 10.4 mph 16.1 mph N/A   Mostly Cloudy
4:56 PM 53.1 °F - 21.0 °F 29% 29.84 in 10.0 mi North 11.5 mph 19.6 mph N/A   Mostly Cloudy
5:56 PM 52.0 °F - 23.0 °F 32% 29.86 in 10.0 mi North 9.2 mph - N/A   Mostly Cloudy
6:56 PM 46.9 °F - 26.1 °F 44% 29.87 in 10.0 mi NNW 3.5 mph - N/A   Mostly Cloudy
7:56 PM 45.0 °F 42.6 °F 27.0 °F 49% 29.89 in 10.0 mi NNW 4.6 mph - N/A   Scattered Clouds
8:56 PM 48.0 °F - 25.0 °F 41% 29.91 in 10.0 mi WNW 6.9 mph - N/A   Scattered Clouds
9:56 PM 46.9 °F - 27.0 °F 46% 29.92 in 10.0 mi West 9.2 mph - N/A   Mostly Cloudy
10:56 PM 46.9 °F - 28.0 °F 48% 29.95 in 10.0 mi WNW 6.9 mph - N/A   Overcast
11:56 PM 46.0 °F 41.9 °F 27.0 °F 47% 29.95 in 10.0 mi WNW 8.1 mph - N/A   Overcast